This is the latest recevied weather packets stored in our database for station/object KI6SYE. If no packets are shown the sender has not sent any weather packets the latest 1 day(s).
| Time | Temp. | Humidity | Pressure | Rain* | Wind** | Luminosity | Snow |
|---|---|---|---|---|---|---|---|
| 1777964292 | 15° C | 85% | 1014.5 hPa | 0 mm | 1.34 m/s, 296° | 0 W/m² | - |
| 1777963989 | 15° C | 85% | 1014.5 hPa | 0 mm | 0.45 m/s, 297° | 0 W/m² | - |
| 1777963687 | 15° C | 85% | 1014.4 hPa | 0 mm | 1.34 m/s, 283° | 0 W/m² | - |
| 1777963383 | 15° C | 85% | 1014.8 hPa | 0 mm | 1.34 m/s, 260° | 0 W/m² | - |
| 1777963081 | 15° C | 85% | 1014.7 hPa | 0 mm | 0.89 m/s, 274° | 0 W/m² | - |
| 1777962778 | 15° C | 85% | 1014.5 hPa | 0 mm | 0.89 m/s, 282° | 0 W/m² | - |
| 1777962474 | 15° C | 84% | 1014.5 hPa | 0 mm | 2.24 m/s, 297° | 0 W/m² | - |
| 1777962172 | 15° C | 84% | 1014.8 hPa | 0 mm | 1.34 m/s, 234° | 0 W/m² | - |
| 1777961868 | 15° C | 84% | 1014.5 hPa | 0 mm | 1.34 m/s, 298° | 0 W/m² | - |
| 1777961566 | 15° C | 84% | 1014.7 hPa | 0 mm | 1.34 m/s, 292° | 0 W/m² | - |
| 1777961263 | 15° C | 85% | 1014.7 hPa | 0 mm | 1.34 m/s, 290° | 0 W/m² | - |
| 1777960956 | 15° C | 85% | 1014.6 hPa | 0 mm | 0.89 m/s, 294° | 0 W/m² | - |
| 1777960650 | 15° C | 85% | 1014.6 hPa | 0 mm | 1.34 m/s, 304° | 0 W/m² | - |
| 1777960347 | 15° C | 85% | 1014.7 hPa | 0 mm | 1.34 m/s, 304° | 0 W/m² | - |
| 1777960044 | 15° C | 85% | 1014.8 hPa | 0 mm | 1.79 m/s, 350° | 0 W/m² | - |
| 1777959736 | 15° C | 84% | 1014.6 hPa | 0 mm | 1.34 m/s, 243° | 0 W/m² | - |
| 1777959435 | 15° C | 84% | 1014.7 hPa | 0 mm | 1.34 m/s, 306° | 0 W/m² | - |
| 1777959130 | 15° C | 84% | 1014.7 hPa | 0 mm | 1.79 m/s, 276° | 0 W/m² | - |
| 1777958828 | 15° C | 85% | 1015.1 hPa | 0 mm | 2.68 m/s, 270° | 0 W/m² | - |
| 1777958524 | 15° C | 87% | 1014.9 hPa | 0 mm | 2.24 m/s, 239° | 0 W/m² | - |
| 1777958222 | 15° C | 87% | 1014.7 hPa | 0 mm | 1.34 m/s, 272° | 0 W/m² | - |
| 1777957920 | 15° C | 87% | 1015 hPa | 0 mm | 1.79 m/s, 273° | 0 W/m² | - |
| 1777957617 | 15° C | 87% | 1014.9 hPa | 0 mm | 0.89 m/s, 229° | 0 W/m² | - |
| 1777957315 | 15° C | 87% | 1014.9 hPa | 0 mm | 1.34 m/s, 238° | 0 W/m² | - |
| 1777957010 | 15° C | 87% | 1014.9 hPa | 0 mm | 1.34 m/s, 253° | 0 W/m² | - |
* Rain latest hour (hover to see other rain measurements)
** Current wind speed in m/s (hover to see current wind gust speed)